Regional Weather Roundup
Issued by NWS

Home | Current Version | Previous Version | Text Only | Print | Product List | Glossary On
Versions: 1 2 3 4 5 6 7 8 9 10 11 12 13 14 15 16 17 18 19 20 21 22 23 24 25 26 27 28 29 30 31 32 33 34 35 36 37 38 39 40 41 42 43 44 45 46 47 48 49 50
000
ASUS45 KBOU 290010
RWRCO

WEATHER ROUNDUP FOR COLORADO
NATIONAL WEATHER SERVICE PUEBLO CO
600 PM MDT TUE JUL 28 2015

NOTE: "FAIR" INDICATES FEW OR NO CLOUDS BELOW 12000 FEET WITH NO
SIGNIFICANT WEATHER AND/OR OBSTRUCTIONS TO VISIBILITY.

COZ001>005-013-030-031-290100-
...NORTHWEST COLORADO...

CITY           SKY/WX    TMP DP  RH WIND       PRES   REMARKS
CRAIG          SUNNY     81  25  12 VRB3      30.22F
HAYDEN         SUNNY     77  27  15 NW7       30.25S
MEEKER         SUNNY     81  25  12 NW12      30.23S
MOUNT WERNER   NOT AVBL
STEAMBOAT SPGS FAIR      76  31  19 W7G17     30.28S
WALDEN         FAIR      70  23  17 W20G26    30.36S
$$

COZ006>008-011-290100-
...WEST CENTRAL VALLEYS...

CITY           SKY/WX    TMP DP  RH WIND       PRES   REMARKS
GRAND JUNCTION SUNNY     89  24   9 NW15G23   30.07F
MONTROSE       SUNNY     87  34  15 N10       30.14F
EAGLE          MOSUNNY   82  27  13 W15       30.22S
RIFLE          SUNNY     88  21   8 W14       30.12S
DELTA          NOT AVBL
NUCLA          FAIR      88  27  11 NW14G20   30.17F
$$

COZ017>023-064>068-290100-
...SOUTHWEST COLORADO...

CITY           SKY/WX    TMP DP  RH WIND       PRES   REMARKS
DURANGO        SUNNY     86  29  12 W8G17     30.17F
CORTEZ         SUNNY     87  23   9 W10G21    30.13F
PAGOSA SPRINGS FAIR      83  24  11 W5        30.26F
TELLURIDE      MOSUNNY   73  29  19 W5        30.41F
WOLF CREEK PAS NOT AVBL
$$

COZ009-010-012-014-032>034-037-058>063-290100-
...CENTRAL COLORADO...

CITY           SKY/WX    TMP DP  RH WIND       PRES   REMARKS
ASPEN          SUNNY     78  33  19 N14G21    30.29S
BUENA VISTA    FAIR      82  20  10 W14G21    30.26S
COPPER MTN     MOSUNNY   63  21  20 W17G25    30.64S
BERTHOUD PASS  FAIR      50  39  66 MISG      30.69S
COTTONWOOD PAS SUNNY     77  10   8 N6        30.44R
GUNNISON       SUNNY     79  30  17 SW5G16    30.29S
KREMMLING      SUNNY     77  27  15 N10G21    30.29R
LEADVILLE      SUNNY     68  25  19 NW12G23   30.44S
MONARCH PASS   MOSUNNY   59  27  29 W17G24    30.73R
SALIDA         FAIR      83  25  12 W12       30.30R
NIWOT RIDGE    NOT AVBL
SUNLIGHT       SUNNY     66  32  28 CALM      30.56F
WILKERSON PASS PTSUNNY   61  34  36 SE5       30.59S
$$

COZ069>075-290100-
...SAN LUIS VALLEY/SANGRE DE CRISTO MOUNTAINS...

CITY           SKY/WX    TMP DP  RH WIND       PRES   REMARKS
ALAMOSA        MOSUNNY   83  35  18 S10       30.21F
LA VETA PASS   CLOUDY    61  41  48 MISG      30.48F
SAGUACHE       MOSUNNY   81  36  19 N7        30.26F
$$

COZ035-036-038>040-290100-
...NORTHERN COLORADO FRONT RANGE...

CITY           SKY/WX    TMP DP  RH WIND       PRES   REMARKS
DENVER INTL AP MOSUNNY   84  38  19 E22       30.14R
DMNS CITY PARK NOT AVBL
AURORA         MOSUNNY   82  44  26 E17G25    30.15R
FRONT RANGE AP MOSUNNY   82  37  20 E17G24    30.15S
ERIE MUNI ARPT FAIR      86  36  17 E12       30.12S
BOULDER MUN AP FAIR      86  41  20 NE8       30.13S
CENTENNIAL     MOSUNNY   83  42  23 E18G28    30.15R
BROOMFIELD     MOSUNNY   84  41  21 E12       30.15S
LOVELAND       SUNNY     84  43  23 SE12      30.10S
LONGMONT       FAIR      87  40  18 E9        30.14R
$$

COZ041-046-047-076>085-087-088-290100-
...PIKES PEAK/PALMER DIVIDE AND SOUTHERN FOOTHILLS...

CITY           SKY/WX    TMP DP  RH WIND       PRES   REMARKS
COLO. SPRINGS  MOSUNNY   83  35  18 SE18      30.19S
A. F. ACADEMY  SUNNY     82  35  18 SE16G23   30.20R
ELLICOTT       FAIR     N/A N/A N/A SE16G23   30.19R
FALCON         FAIR      78  36  21 SE13      30.26R
FORT CARSON    PTSUNNY   84  40  20 SE16      30.16R
LIMON          SUNNY     79  44  28 E13       30.18R
MONUMENT HILL  SUNNY     75  37  25 SE13G24   30.25R
TRINIDAD       CLOUDY    78  49  35 VRB5      30.17S
$$

COZ042>045-048>051-090-091-290100-
...NORTHEAST COLORADO...

CITY           SKY/WX    TMP DP  RH WIND       PRES   REMARKS
GREELEY ARPT   SUNNY     84  43  23 SE14      30.13S
AKRON          SUNNY     81  36  19 SE9       30.14S
BURLINGTON     SUNNY     80  41  24 NE14      30.12S
WRAY           FAIR      84  41  22 NE12      30.10S
STERLING       NOT AVBL
HOLYOKE        FAIR      86  28  12 N16       30.11R
FORT MORGAN    FAIR      82  34  18 E12       30.14S
$$

COZ086-089-092>099-290100-
...SOUTHEAST COLORADO...

CITY           SKY/WX    TMP DP  RH WIND       PRES   REMARKS
PUEBLO         MOSUNNY   89  39  17 SE18      30.07R
LA JUNTA       MOSUNNY   87  40  19 E18       30.06S
LAMAR          PTSUNNY   86  46  24 E16       30.03S
SPRINGFIELD      N/A     80  48  32 E13       30.09S
$$




USA.gov is the U.S. government's official web portal to all federal, state and local government web resources and services.